www.pogodaiklimat.ru

Погода и климат >> Архив погоды >> Китай >> Синьцзян-Уйгурский автономный район >> Тажонг


ПОГОДА в Тажонге

  • Прогноз погоды в Тажонге
  • Монитор погоды в Тажонге

АРХИВ ПОГОДЫ в Тажонге

Время (UTC), дата Ветер
(напр.,м/с)
 
Видим.   Явления Облачность Т
(С)
Тd
(С)
f
(%)
Тe
(С)
Тes
(С)
Комфортность P
(гПа)
Po
(гПа)
Тmin
(С)
Tmax
(С)
R
(мм)
R24
(мм)
S
(см)
21 12.05 Ю 3 3900 м мгла н/о +14.3 -6.5 23 +14 +14 1004.8 881.7
00 13.05 В 1 2900 м пыль 9/9
[]
+12.5 -4.6 30 +13 +13 1006.2 882.2
03 13.05 С 3 2000 м пыль 9/9
[]
+21.8 -10.0 11 +20 +21 1006.0 885.7
06 13.05 СВ 4 3600 м пыль 9/9
[]
+27.6 -11.3 7 +24 +25 комфорт 1003.5 885.7 +10.2
09 13.05 С 5 4500 м пыльный позёмок 9/9
[]
+28.3 -7.6 9 +25 +25 комфорт 1001.7 884.4
12 13.05 С 3 6000 м пыль ясно +27.6 -6.7 10 +24 +26 комфорт 1002.2 884.5
15 13.05 С 3 н/о мгла н/о +22.3 -1.7 20 +21 +21 комфорт 1004.1 884.2
18 13.05 штиль 0 6000 м мгла ?/? +13.9 +1.2 42 +14 +14 1005.5 882.2 +28.7
21 13.05 штиль 0 6000 м мгла н/о +10.6 +1.9 55 +10 +10 1006.1 881.4
00 14.05 штиль 0 н/о 9/9
[]
+9.1 +2.2 62 +9 +9 1006.8 881.4
03 14.05 ЮЗ 4 4500 м пыль 9/9
[]
+24.4 -3.9 15 +22 +23 комфорт 1005.5 886.3
06 14.05 ЮЗ 4 10 км 9/9
[]
+28.2 -2.8 13 +25 +27 комфорт 1005.8 887.9 +8.3
09 14.05 З 3 9000 м 9/9
[]
+30.0 -4.9 10 +26 +28 жарко 1004.0 887.0
12 14.05 СЗ 3 9000 м 9/9 1500 м
[]
+29.2 -5.5 10 +26 +26 жарко 1004.1 886.8
15 14.05 С 1 9000 м н/о +19.8 +2.2 31 +21 +21 комфорт 1004.0 883.2
18 14.05 С 1 9000 м н/о +16.8 +2.4 38 +18 +18 1004.4 882.4 +30.3
21 14.05 С 1 9000 м н/о +12.4 +0.2 43 +13 +13 1004.5 880.7
00 15.05 В 1 9000 м 3/3 1500 м
[]
+9.9 +1.0 54 +10 +10 1005.4 880.5
03 15.05 Ю 3 14 км ясно +26.6 -6.3 11 +24 +32 комфорт 1003.9 885.7
06 15.05 З 3 12 км 9/9 1500 м
[]
+30.3 -4.7 10 +27 +28 жарко 1001.6 885.0 +9.4
09 15.05 Ю 4 13 км 9/9 1500 м
[]
+31.7 -6.6 8 +28 +29 жарко 999.5 883.6
12 15.05 СЗ 3 14 км 9/9 1500 м
[]
+31.5 -8.4 7 +27 +28 жарко 998.9 883.0
15 15.05 С 2 13 км н/о +23.8 -7.3 12 +22 +22 комфорт 999.1 880.4
18 15.05 В 1 14 км н/о +12.5 -3.3 33 +13 +13 1000.9 877.6 +32.7
21 15.05 СВ 2 15 км н/о +8.6 -2.7 45 +7 +7 1000.9 876.0
00 16.05 С 2 10 км ясно +10.5 -5.5 32 +10 +10 1000.3 876.2
03 16.05 Ю 7 4000 м пыль ясно +28.4 -6.1 10 +25 +28 комфорт 997.5 880.7
06 16.05 З 5 11 км 5/5 1000 м
[]
+32.3 -9.8 6 +28 +33 жарко 997.3 879.2 +7.2
09 16.05 З 6 9000 м 6/6 1000 м
[]
+34.2 -8.5 6 +30 +32 жарко 995.1 880.6
12 16.05 СЗ 6 4300 м пыльный позёмок 9/9 1500 м
[]
+32.6 -7.6 7 +28 +28 жарко 994.6 879.6
15 16.05 С 5 6000 м мгла н/о +28.1 -7.7 9 +25 +25 комфорт 994.4 877.8
18 16.05 С 4 6000 м мгла ?/? +22.8 -7.0 13 +21 +21 комфорт 995.3 876.7 +34.5
21 16.05 В 1 6000 м мгла н/о +11.9 -1.6 39 +12 +12 996.7 873.7
00 17.05 В 1 н/о пыль 8/8
[]
+10.3 -1.7 43 +10 +11 997.7 873.9
03 17.05 СВ 6 н/о пыль ясно +23.0 -2.6 18 +22 +26 комфорт 997.0 878.2
06 17.05 С 4 н/о пыль ясно +29.8 -6.4 9 +26 +39 жарко 995.9 879.8 +8.6
09 17.05 СВ 7 600 м пыльная буря {метель} н/о +28.8 -4.6 11 +26 +26 жарко 997.6 880.9
12 17.05 С 7 3500 м пыльный позёмок ясно +28.6 -6.0 10 +25 +26 комфорт 998.7 881.8
15 17.05 СВ 6 3500 м мгла н/о +24.5 -4.7 14 +22 +22 комфорт 1001.0 882.3
18 17.05 В 5 1000 м мгла ?/? +22.8 -3.5 17 +21 +21 комфорт 1003.3 883.7 +31.0
21 17.05 СВ 3 1000 м мгла н/о +20.2 -3.5 20 +20 +20 1005.0 884.2
00 18.05 В 6 1000 м пыль 9/9
[]
+18.0 -5.3 20 +17 +17 1007.2 885.3
03 18.05 В 5 1400 м пыльный позёмок 3/3
[]
+19.7 -5.3 18 +19 +23 1008.5 887.1
06 18.05 В 8 1700 м пыльный позёмок ясно +24.3 -5.9 13 +22 +26 комфорт 1007.4 887.9 +17.8
09 18.05 В 7 1500 м пыльный позёмок ясно +25.2 -9.9 9 +22 +26 комфорт 1005.6 886.7
12 18.05 В 7 1100 м пыльный позёмок н/о +22.9 -11.6 9 +20 +20 1008.0 887.9
15 18.05 СВ 5 1100 м мгла н/о +21.0 -13.1 9 +20 +20 1011.6 890.3
18 18.05 В 4 1100 м мгла ?/? +18.9 -14.7 9 +19 +19 1012.6 892.4 +26.2
21 18.05 В 3 900 м мгла н/о +16.2 -16.7 9 +16 +16 1013.1 889.8
00 19.05 В 3 1000 м пыль 9/9
[]
+14.5 -18.0 9 +14 +14 1014.8 890.6
03 19.05 ЮВ 3 1700 м пыль 9/9
[]
+18.3 -19.9 6 +18 +19 1015.3 892.5
06 19.05 В 6 3800 м пыль ясно +23.5 -18.3 5 +21 +28 комфорт 1013.7 893.2 +14.5
09 19.05 В 5 7000 м пыль ясно +25.9 -22.6 3 +22 +29 комфорт 1011.6 892.2
12 19.05 В 4 14 км ясно +24.5 -23.5 3 +21 +22 комфорт 1012.1 892.1
15 19.05 В 3 18 км н/о +17.5 -22.6 5 +18 +18 1014.2 891.3
18 19.05 штиль 0 21 км н/о +10.9 -16.5 13 +11 +11 1014.8 889.1 +26.2

 

Местоположение метеостанции Тажонг (Синьцзян-Уйгурский автономный район, Китай): широта 39.00 долгота 83.67 высота над уровнем моря 1099 м.

В архиве по умолчанию представлена погода в Тажонге за последнюю неделю. Архивные данные за месяц целиком и за предыдущие месяцы, начиная с января 2011 года, Вы можете получить, выбрав интересующий диапазон дат из раскрывающегося списка и нажав кнопку "Ввод!".


*Определитесь, кто Вы:
робот инопланетянин человек

Внимание! Время в таблицах - всемирное. Для получения местного времени необходимо прибавить поправку, которая равна 8 ч.

Смотрите также архив погоды в соседних городах и на ближайших метеорологических станциях:

Погода в Аларе (Синьцзян-Уйгурский автономный район, Китай) (279 км)
Погода в Куче (Синьцзян-Уйгурский автономный район, Китай) (309 км)
Погода в Корле (Синьцзян-Уйгурский автономный район, Китай) (370 км)
Погода в Хотане (Синьцзян-Уйгурский автономный район, Китай) (388 км)
Погода в Чарклыке (Синьцзян-Уйгурский автономный район, Китай) (389 км)
Погода в Тиканлике (Синьцзян-Уйгурский автономный район, Китай) (389 км)
Погода в Бачу (Синьцзян-Уйгурский автономный район, Китай) (447 км)
Погода в Баянбулаке (Синьцзян-Уйгурский автономный район, Китай) (450 км)
Погода в Балун Тай Кун (Синьцзян-Уйгурский автономный район, Китай) (465 км)
Погода в Акчи (Синьцзян-Уйгурский автономный район, Китай) (494 км)

Пояснения к столбцам:

Ветер - указаны скорость ветра в м/с - средняя за 10 мин, порывы в срок и между сроками (в фигурных скобках) и направление, откуда дует ветер: С - северный, СВ - северо-восточный, В - восточный, ЮВ - юго-восточный, Ю - южный, ЮЗ - юго-западный, З - западный, СЗ - северо-западный.
Видимость - горизонтальная дальность видимости в метрах или километрах. При видимости от 1 до 10 км при отсутствии осадков обычно наблюдается дымка, при ухудшении видимости до 1 км и менее - туман. В сухую погоду видимость может ухудшаться дымом, пылью или мглою.
Явления - указаны атмосферные явления, наблюдавшиеся в срок или в последний час перед сроком; фигурными скобками обозначены явления, наблюдавшиеся между сроками (за 1-3 часа до срока); квадратными скобками обозначены град или гололедные отложения с указанием их диаметра в мм.
Облачность - указаны через наклонную черту общая и нижняя облачность в баллах и высота нижней границы облаков в метрах; квадратными скобками обозначены формы облаков: Ci - перистые, Cs - перисто-слоистые, Cc - перисто-кучевые, Ac - высококучевые, As - высокослоистые, Sc - слоисто-кучевые, Ns - слоисто-дождевые, Cu - кучевые, Cb - кучево-дождевые. Подробнее классификацию облаков см. в Атласе облаков (PDF).
T - Температура воздуха - температура, измеренная на высоте 2 м над землей.
Td - Температура точки росы - температура, при понижении до которой содержащийся в воздухе водяной пар достигнет насыщения.
f - Относительная влажность воздуха - влажноcть воздуха, измеренная на высоте 2 м над землей.
Te - Эффективная температура - температура, которую ощущает одетый по сезону человек в тени. Характеристика душности погоды. При расчете учитывается влияние влажности воздуха и скорости ветра на теплоощущения человека.
Tes - Эффективная температура на солнце - температура, которую ощущает человек, с поправкой на солнечный нагрев. Характеристика знойности погоды. Зависит от высоты солнца над горизонтом, облачности и скорости ветра. Ночью, в пасмурную погоду, а также при ветре 12 м/с и более поправка равна нулю.
P - Атмосферное давление - приведенное к уровню моря атмосферное давление.
Po - Атмосферное давление - измеренное на уровне метеостанции атмосферное давление.
Tmin - Минимальная температура - минимум температуры воздуха на высоте 2 м над землей.
Tmax - Максимальная температура - максимум температуры воздуха на высоте 2 м над землей.
R - Количество осадков - Количество выпавших осадков за период времени, мм. При наведении курсора мыши на число - период времени, за который выпало указанное количество осадков.
R24 - Количество осадков - Количество выпавших осадков за 24 часа, мм.
S - Снежный покров - Высота снежного покрова, см. При наведении курсора мыши на число - состояние снежного покрова и степень покрытия местности в баллах.